SCP
0 0 0 0 0 0 0 0 0 0 0 0 0 0 0 0 0 0 0 0 0 0 0 0 0 0 0 0 0 0 0 0 0 0 0 0 0 0 0 0 0 0 0
0 0 0 0 0 0 0 0 0 0 0 0 0 0 0 0 0 0 0 0 0 0 0 0 0 0 0 0 0 0 0 0 0 0 0 0 0 0 0 0 0 0 0
0 0 0 0 0 0 0 0 0 0 0 0 0 0 0 0 0 0 0 0 0 0 0 0 0 0 0 0 0 0 0 0 0 0 0 0 0 0 0 0 0 0 0
0 0 0 0 0 0 0 0 0 0 0 0 0 0 0 0 0 0 0 0 0 0 0 0 0 0 0 0 0 0 0 0 0 0 0 0 0 0 0 0 0 0 0
0 0 0 0 0 0 0 0 0 0 0 0 0 0 0 0 0 0 0 0 0 0 0 0 0 0 0 0 0 0 0 0 0 0 0 0 0 0 0 0 0 0 0
0 0 0 0 0 0 0 0 0 0 0 0 0 0 0 0 0 0 0 0 0 0 0 0 0 0 0 0 0 0 0 0 0 0 0 0 0 0 0 0 0 0 0
0 0 0 0 0 0 0 0 0 0 0 0 0 0 0 0 0 0 0 0 0 0 0 0 0 0 0 0 0 0 0 0 0 0 0 0 0 0 0 0 0 0 0
0 0 0 0 0 0 0 0 0 0 0 0 0 0 0 0 0 0 0 0 0 0 0 0 0 0 0 0 0 0 0 0 0 0 0 0 0 0 0 0 0 0 0
0 0 0 0 0 0 0 0 0 0 0 0 0 0 0 0 0 0 0 0 0 0 0 0 0 0 0 0 0 0 0 0 0 0 0 0 0 0 0 0 0 0 0
0 0 0 0 0 0 0 0 0 0 0 0 0 0 0 0 0 0 0 0 0 0 0 0 0 0 0 0 0 0 0 0 0 0 0 0 0 0 0 0 0 0 0
0 0 0 0 0 0 0 0 0 0 0 0 0 0 0 0 0 0 0 0 0 0 0 0 0 0 0 0 0 0 0 0 0 0 0 0 0 0 0 0 0 0 0
0 0 0 0 0 0 0 0 0 0 0 0 0 0 0 0 0 0 0 0 0 0 0 0 0 0 0 0 0 0 0 0 0 0 0 0 0 0 0 0 0 0 0
0 0 0 0 0 0 0 0 0 0 0 0 0 0 0 0 0 0 0 0 0 0 0 0 0 0 0 0 0 0 0 0 0 0 0 0 0 0 0 0 0 0 0
0 0 0 0 0 0 0 0 0 0 0 0 0 0 0 0 0 0 0 0 0 0 0 0 0 0 0 0 0 0 0 0 0 0 0 0 0 0 0 0 0 0 0
0 0 0 0 0 0 0 0 0 0 0 0 0 0 0 0 0 0 0 0 0 0 0 0 0 0 0 0 0 0 0 0 0 0 0 0 0 0 0 0 0 0 0
0 0 0 0 0 0 0 0 0 0 0 0 0 0 0 0 0 0 0 0 0 0 0 0 0 0 0 0 0 0 0 0 0 0 0 0 0 0 0 0 0 0 0
0 0 0 0 0 0 0 0 0 0 0 0 0 0 0 0 0 0 0 0 0 0 0 0 0 0 0 0 0 0 0 0 0 0 0 0 0 0 0 0 0 0 0
0 0 0 0 0 0 0 0 0 0 0 0 0 0 0 0 0 0 0 0 0 0 0 0 0 0 0 0 0 0 0 0 0 0 0 0 0 0 0 0 0 0 0
0 0 0 0 0 0 0 0 0 0 0 0 0 0 0 0 0 0 0 0 0 0 0 0 0 0 0 0 0 0 0 0 0 0 0 0 0 0 0 0 0 0 0
0 0 0 0 0 0 0 0 0 0 0 0 0 0 0 0 0 0 0 0 0 0 0 0 0 0 0 0 0 0 0 0 0 0 0 0 0 0 0 0 0 0 0
0 0 0 0 0 0 0 0 0 0 0 0 0 0 0 0 0 0 0 0 0 0 0 0 0 0 0 0 0 0 0 0 0 0 0 0 0 0 0 0 0 0 0
0 0 0 0 0 0 0 0 0 0 0 0 0 0 0 0 0 0 0 0 0 0 0 0 0 0 0 0 0 0 0 0 0 0 0 0 0 0 0 0 0 0 0
0 0 0 0 0 0 0 0 0 0 0 0 0 0 0 0 0 0 0 0 0 0 0 0 0 0 0 0 0 0 0 0 0 0 0 0 0 0 0 0 0 0 0
0 0 0 0 0 0 0 0 0 0 0 0 0 0 0 0 0 0 0 0 0 0 0 0 0 0 0 0 0 0 0 0 0 0 0 0 0 0 0 0 0 0 0
0 0 0 0 0 0 0 0 0 0 0 0 0 0 0 0 0 0 0 0 0 0 0 0 0 0 0 0 0 0 0 0 0 0 0 0 0 0 0 0 0 0 0
0 0 0 0 0 0 0 0 0 0 0 0 0 0 0 0 0 0 0 0 0 0 0 0 0 0 0 0 0 0 0 0 0 0 0 0 0 0 0 0 0 0 0
Wind_Speed
3 3 3 3 3 3 2 3 3 2 3 3 3 3 3 3 3 3 3 3 4 3 2 3 2 2 2 2 2 2 2 2 3 3 2 2 2 3 3 3 3 3 4
3 3 3 3 3 3 2 2 2 3 2 3 3 3 3 3 3 4 4 3 4 4 3 3 3 2 2 2 2 2 2 3 3 4 3 2 3 3 3 4 4 4 4
3 3 3 2 3 3 2 2 2 3 2 2 3 3 3 3 3 3 4 3 3 3 3 3 3 3 3 2 2 2 2 2 2 3 4 2 2 2 3 3 4 4 5
3 3 3 2 2 2 2 2 2 3 3 2 2 2 3 3 3 3 3 3 3 2 2 3 3 3 4 3 3 3 2 2 2 2 3 3 2 2 2 2 3 3 4
3 3 2 2 2 2 2 2 3 3 2 2 2 2 2 2 3 3 3 3 3 2 2 2 3 3 4 3 3 3 3 2 2 2 3 3 3 2 3 2 4 3 4
3 2 2 2 3 2 2 3 3 3 2 2 2 2 2 1 3 4 3 3 3 3 2 2 2 3 3 4 4 4 4 3 3 3 3 4 5 4 3 3 3 3 5
2 2 2 3 3 2 3 3 3 3 3 2 2 2 2 2 3 3 3 2 3 3 3 2 2 2 2 2 3 4 4 5 6 4 4 5 5 5 4 4 4 4 5
2 2 2 2 3 3 3 3 2 2 2 2 1 2 1 1 2 3 3 2 2 2 2 3 3 3 3 3 2 2 2 3 4 3 4 5 5 4 4 4 4 4 3
1 1 2 3 3 3 3 2 2 2 2 1 1 2 2 1 2 2 2 2 1 2 2 2 3 3 5 5 2 2 3 3 4 4 5 5 6 6 4 2 2 2 3
1 1 1 2 3 3 2 2 1 2 2 2 1 1 1 1 2 2 2 2 2 1 1 2 4 5 5 5 3 3 3 3 2 2 3 4 3 4 4 2 2 3 3
1 2 2 2 2 3 2 1 2 2 2 1 1 0 1 1 2 2 2 1 2 2 2 2 2 4 5 5 4 3 4 3 1 1 2 2 2 2 2 2 2 3 3
2 2 2 2 2 2 3 2 2 2 2 1 1 0 0 1 1 2 2 2 2 2 2 2 2 4 4 4 3 3 4 3 1 1 1 2 2 2 3 3 3 3 4
2 2 2 2 2 2 2 2 1 1 1 1 1 1 1 1 1 2 3 3 3 2 2 4 3 3 3 2 3 3 2 1 1 2 2 3 2 3 2 2 3 3 4
2 2 2 2 2 2 1 1 1 1 1 1 1 1 1 1 1 1 1 2 2 2 2 2 1 1 1 2 2 1 1 1 2 2 2 2 2 2 2 2 3 3 3
2 1 1 1 1 1 0 0 1 2 2 2 2 2 2 2 3 4 2 2 2 2 1 0 0 0 0 1 1 1 1 1 1 2 2 2 2 2 3 2 2 2 3
1 1 1 0 0 0 0 1 2 2 3 3 4 3 3 4 5 4 4 4 3 2 0 1 1 1 1 1 1 1 1 2 2 2 2 2 2 3 3 2 2 3 4
1 0 0 0 0 0 0 0 1 2 3 3 3 4 4 4 4 4 3 3 2 1 0 1 2 2 2 2 2 2 2 2 2 2 2 2 2 3 3 3 3 3 4
1 1 1 0 0 0 1 1 1 1 2 2 3 4 4 3 3 3 2 1 1 1 1 2 2 2 2 2 2 2 2 2 2 2 2 2 2 2 3 3 3 3 4
1 1 1 1 1 1 1 1 1 1 2 2 2 2 3 3 2 2 1 0 1 2 1 2 2 2 2 2 2 2 2 2 2 2 2 2 2 2 3 3 3 5 5
1 2 2 1 1 1 1 1 1 1 1 2 2 2 2 1 1 1 1 1 1 2 2 2 2 2 2 2 2 2 2 3 3 2 2 2 2 3 3 4 4 4 4
1 1 2 1 1 1 1 1 2 1 2 2 2 2 3 2 1 2 1 2 2 2 2 2 2 2 2 2 2 3 3 3 3 3 3 3 3 3 3 3 4 4 4
2 1 1 1 1 2 2 2 2 2 2 2 2 2 4 2 1 2 2 2 2 2 2 2 2 2 2 3 3 3 3 3 3 3 3 3 3 3 3 3 4 4 4
2 2 2 2 2 3 2 2 2 2 2 2 2 2 2 2 2 2 2 2 2 2 2 2 2 2 2 3 3 3 4 4 4 4 4 3 3 3 4 4 4 4 4
2 2 2 2 2 2 2 2 2 2 2 2 2 2 2 2 2 3 2 2 2 2 2 2 3 4 4 4 3 3 4 4 4 4 5 5 4 4 4 4 4 5 5
2 2 2 2 2 2 2 2 2 2 2 2 2 2 2 2 2 2 2 2 2 3 3 3 3 3 4 5 5 4 6 8 7 5 4 4 5 5 5 5 5 4 4
2 2 2 2 2 2 2 2 2 3 3 3 2 2 2 2 2 2 2 2 2 3 3 3 3 4 5 4 5 7 8 9 8 8 5 4 5 5 5 4 5 4 4
Wind_Direction
160 163 157 167 162 153 161 175 168 159 162 164 165 157 152 151 153 151 152 152 151 153 161 170 194 195 184 185 180 196 206 202 241 274 251 243 241 257 285 282 275 273 283
142 143 154 156 154 157 164 174 163 155 158 164 160 155 156 155 157 158 160 153 160 167 177 179 192 193 195 192 189 203 219 216 215 259 273 258 253 253 264 274 284 287 279
130 130 128 140 154 161 166 165 154 145 145 150 145 151 158 159 162 166 162 158 165 177 183 190 197 185 203 210 208 212 227 236 218 234 266 268 262 263 272 277 277 284 284
134 137 143 152 157 151 143 139 144 142 148 152 142 153 156 155 160 162 159 157 161 174 183 194 199 198 208 211 219 217 220 224 215 230 259 270 271 263 255 272 289 287 288
142 148 157 149 140 135 128 126 122 123 130 128 123 130 142 154 168 163 161 162 163 167 183 200 208 217 228 232 236 220 211 220 221 237 257 276 274 267 259 257 276 295 288
153 158 145 133 131 130 128 127 125 119 117 118 133 148 155 170 172 176 172 166 168 175 191 209 221 232 238 251 261 259 243 234 234 239 255 260 266 262 262 263 277 292 288
157 152 148 139 135 140 136 128 132 131 122 127 144 151 168 183 181 183 183 169 176 190 201 211 233 241 265 243 257 267 263 265 261 247 244 253 257 251 248 262 260 264 269
144 142 147 140 138 138 133 138 136 129 133 144 152 161 161 189 196 198 193 173 179 204 209 213 222 233 236 240 230 237 244 256 264 256 236 247 250 247 237 249 258 273 275
148 155 160 150 140 136 139 142 131 128 126 135 153 151 156 199 206 195 186 158 184 224 227 225 230 232 240 251 236 234 259 271 285 282 279 282 284 285 279 269 262 273 284
200 172 155 144 141 143 145 136 110 124 132 133 123 141 166 197 210 196 191 164 189 229 244 240 245 249 249 245 229 218 242 265 277 305 309 310 299 285 285 262 235 251 273
72 103 99 104 126 133 126 118 122 114 114 115 122 121 168 206 220 209 213 191 197 211 240 260 252 255 260 253 252 234 249 275 264 264 282 287 288 279 272 261 240 236 250
80 88 89 84 100 112 112 106 113 126 129 129 136 285 253 248 246 231 238 255 248 218 237 256 253 263 274 273 270 260 270 293 270 271 279 281 280 280 280 278 269 259 252
78 75 75 75 79 103 119 124 123 135 151 174 188 226 264 271 267 264 262 263 267 267 246 260 272 278 296 288 274 274 285 267 255 266 272 277 275 273 280 290 292 281 277
80 70 69 79 71 73 93 124 145 168 178 196 209 224 240 256 255 248 238 247 260 272 261 249 279 315 327 311 309 307 276 240 248 252 267 275 283 284 281 279 285 295 296
67 69 73 72 87 79 55 193 204 213 214 213 215 213 214 238 250 252 246 231 221 221 221 145 147 275 319 299 293 296 300 292 278 268 269 280 287 290 289 284 274 287 282
64 62 74 79 84 100 30 341 319 287 278 265 249 249 250 251 260 262 265 259 252 233 229 174 217 228 245 263 274 289 285 275 273 274 272 271 277 283 289 290 283 281 284
49 43 346 108 135 195 228 265 322 337 327 307 292 282 273 265 267 266 262 255 242 231 220 216 235 238 244 249 254 265 275 276 274 265 264 268 272 276 280 286 289 291 288
10 2 352 330 301 276 259 253 249 274 311 314 304 298 296 282 272 264 254 264 238 224 223 234 247 248 248 251 254 262 268 274 274 269 267 267 266 271 278 281 283 284 287
347 333 319 311 303 295 287 276 267 270 278 295 320 315 312 308 294 278 268 223 220 244 248 250 251 249 251 251 254 255 256 261 264 263 262 262 264 267 271 276 282 290 289
323 326 331 311 296 291 282 277 275 273 281 286 290 300 318 326 307 288 282 238 236 250 252 256 258 252 249 247 249 251 256 259 258 257 259 260 262 263 268 275 280 285 285
317 314 323 323 298 281 276 272 272 272 277 283 284 286 285 274 260 260 261 249 240 247 252 255 259 257 252 247 247 247 249 254 252 251 255 256 258 264 268 271 277 281 284
316 309 301 292 291 288 285 276 273 270 269 275 289 294 288 291 279 275 268 266 258 252 248 248 254 254 248 243 243 247 249 251 252 251 253 254 256 263 267 270 277 282 284
330 322 308 296 284 284 292 289 283 276 275 275 281 288 283 272 269 270 272 277 275 268 261 251 255 261 260 251 244 241 243 247 247 244 248 254 257 261 265 267 273 280 281
326 313 301 296 295 286 280 281 279 278 276 275 275 273 269 264 265 271 275 278 278 275 267 261 258 259 263 266 259 251 249 252 248 242 239 242 250 257 260 263 268 270 273
315 303 296 293 290 284 279 278 278 275 273 274 273 272 272 271 273 276 279 278 276 275 274 269 263 260 260 264 267 264 264 268 267 259 242 239 243 247 252 257 261 267 268
312 304 296 289 282 278 275 275 274 274 273 274 271 268 268 268 270 273 276 277 278 279 279 275 268 268 270 270 269 271 277 278 275 271 260 245 244 248 248 252 255 257 261